Weather History for Cork Airport, Ireland

Change the Weather History Date:

Monday, February 17, 2014

  Actual Average Record
Temperature  
Mean Temperature 44 °F -  
Max Temperature 48 °F 48 °F - ()
Min Temperature 39 °F 38 °F - ()
Degree Days  
Heating Degree Days 22    
Moisture  
Dew Point 44 °F    
Average Humidity 96    
Maximum Humidity 100    
Minimum Humidity 86    
Precipitation  
Precipitation 0.28 in 0.14 in - ()
Sea Level Pressure  
Sea Level Pressure 29.41 in    
Wind  
Wind Speed 9 mph ()    
Max Wind Speed 23 mph    
Max Gust Speed 34 mph    
Visibility 5.5 miles    
Events Fog , Rain    
T = Trace of Precipitation, MM = Missing Value Source: Averaged Metar Reports

Daily Weather History Graph

Daily Weather History Graph

Search for Another Location

Airport:

Trip Planner

Search our weather history database for the weather conditions in past years. The results will help you decide how hot, cold, wet, or windy it might be!

Date:

Astronomy

Feb. 17, 2014 Rise Set
Actual Time 7:44 AM GMT 5:51 PM GMT
Civil Twilight 7:10 AM GMT 6:26 PM GMT
Nautical Twilight 6:31 AM GMT 7:05 PM GMT
Astronomical Twilight 5:52 AM GMT 7:44 PM GMT
Moon 8:58 PM GMT (2/17) 8:16 AM GMT (2/17)
Length of Visible Light 11h 16m
Length of Day
10h 06m
Waning Gibbous, 94% of the Moon is Illuminated
Feb 17
Waning Gibbous
Feb 22
Last Quarter
Mar 1
New
Mar 8
First Quarter
Mar 16
Full

Hourly Weather History & Observations

Time (GMT) Temp. Windchill Dew Point Humidity Pressure Visibility Wind Dir Wind Speed Gust Speed Precip Events Conditions
12:00 AM 46 °F - 45 °F 96% 29.29 in 3 mi South 22.4 mph - - Rain Light Rain
12:00 AM 46.4 °F 38.3 °F 44.6 °F 93% 29.27 in 3.1 mi South 23.0 mph - N/A Rain Light Rain
12:30 AM 46.4 °F 38.7 °F 46.4 °F 100% 29.27 in 1.2 mi South 20.7 mph 34.5 mph N/A Rain Light Rain
1:00 AM 46 °F - 46 °F 100% 29.28 in 2 mi South 22.4 mph - - Rain Light Rain
1:00 AM 46.4 °F 38.3 °F 46.4 °F 100% 29.27 in 2.5 mi South 23.0 mph 34.5 mph N/A Rain Light Rain
1:30 AM 46.4 °F 39.0 °F 46.4 °F 100% 29.27 in 2.5 mi South 19.6 mph 31.1 mph N/A Rain Light Rain
2:00 AM 46 °F - 46 °F 100% 29.28 in 2 mi South 17.9 mph - - Rain Light Rain
2:00 AM 46.4 °F 39.2 °F 46.4 °F 100% 29.27 in 2.5 mi South 18.4 mph - N/A Rain Light Rain
2:30 AM 46.4 °F 40.1 °F 46.4 °F 100% 29.27 in 3.1 mi South 15.0 mph - N/A Rain Light Rain
3:00 AM 46 °F - 46 °F 99% 29.29 in 2 mi South 11.2 mph - - Rain Rain
3:30 AM 46.4 °F 42.9 °F 46.4 °F 100% 29.27 in 3.1 mi South 6.9 mph - N/A Rain Light Rain
4:00 AM 46 °F - 46 °F 98% 29.29 in 1 mi South 6.7 mph - - Rain Light Rain
4:00 AM 46.4 °F 42.9 °F 46.4 °F 100% 29.27 in 1.2 mi South 6.9 mph - N/A Rain Light Rain
4:30 AM 46.4 °F 43.5 °F 46.4 °F 100% 29.27 in 3.7 mi South 5.8 mph - N/A   Mostly Cloudy
5:00 AM 45 °F - 45 °F 99% 29.29 in 9 mi South 4.5 mph - - Rain Light Rain
5:00 AM 44.6 °F 43.1 °F 44.6 °F 100% 29.27 in 6.2 mi South 3.5 mph - N/A   Mostly Cloudy
5:30 AM 46.4 °F 45.2 °F 46.4 °F 100% 29.27 in 0.7 mi SW 3.5 mph - N/A   Mostly Cloudy
6:00 AM 45 °F - 45 °F 100% 29.30 in 1 mi WSW 2.2 mph - - Fog Heavy Fog
6:00 AM 44.6 °F - 44.6 °F 100% 29.27 in 0.6 mi WSW 2.3 mph - N/A Fog Fog
6:30 AM 44.6 °F - 44.6 °F 100% 29.27 in 0.6 mi East 2.3 mph - N/A Fog Fog
7:00 AM 45 °F - 45 °F 99% 29.32 in 0 mi SE 4.5 mph - - Fog Heavy Fog
7:00 AM 44.6 °F 43.1 °F 44.6 °F 100% 29.30 in 0.3 mi SE 3.5 mph - N/A Fog Fog
7:30 AM 44.6 °F - 44.6 °F 100% 29.30 in 0.4 mi SE 1.2 mph - N/A Fog Fog
8:00 AM 45 °F - 45 °F 100% 29.34 in 0 mi North 2.2 mph - - Rain Light Rain
8:00 AM 44.6 °F - 44.6 °F 100% 29.30 in 0.2 mi North 1.2 mph - N/A Fog , Rain Light Rain
8:30 AM 44.6 °F - 44.6 °F 100% 29.33 in 0.6 mi Calm Calm - N/A Fog Fog
9:00 AM 46 °F - 46 °F 97% 29.35 in 0 mi NW 4.5 mph - - Rain Light Rain
9:00 AM 46.4 °F 45.2 °F 46.4 °F 100% 29.33 in 0.4 mi NW 3.5 mph - N/A Fog , Rain Light Rain
9:30 AM 46.4 °F - 46.4 °F 100% 29.33 in 0.6 mi WNW 2.3 mph - N/A Fog , Rain Light Rain
10:00 AM 45 °F - 45 °F 100% 29.37 in 0 mi NW 4.5 mph - - Rain Light Rain
10:00 AM 44.6 °F 43.1 °F 44.6 °F 100% 29.36 in 0.3 mi NW 3.5 mph - N/A Fog , Rain Light Rain
10:30 AM 44.6 °F 43.1 °F 44.6 °F 100% 29.36 in 0.6 mi WSW 3.5 mph - N/A Fog , Rain Light Rain
11:00 AM 45 °F - 45 °F 100% 29.38 in 4 mi NW 2.2 mph - - Rain Light Rain
11:00 AM 44.6 °F - 44.6 °F 100% 29.36 in 3.7 mi NW 2.3 mph - N/A Rain Light Rain
11:30 AM 46.4 °F 43.5 °F 46.4 °F 100% 29.39 in 4.3 mi WNW 5.8 mph - N/A   Mostly Cloudy
12:00 PM 48 °F - 47 °F 97% 29.41 in 12 mi West 6.7 mph - - Rain Light Rain
12:00 PM 48.2 °F - 48.2 °F 100% 29.39 in 6.2 mi West 6.9 mph - N/A   Mostly Cloudy
12:30 PM 48.2 °F - 46.4 °F 93% 29.39 in 6.2 mi West 9.2 mph - N/A   Mostly Cloudy
1:00 PM 46 °F - 46 °F 98% 29.43 in 12 mi West 6.7 mph - - Rain Light Rain Showers
1:00 PM 46.4 °F 43.5 °F 46.4 °F 100% 29.42 in 6.2 mi West 5.8 mph - N/A   Mostly Cloudy
1:30 PM 48.2 °F - 48.2 °F 100% 29.42 in 6.2 mi West 8.1 mph - N/A   Mostly Cloudy
2:00 PM 48 °F - 46 °F 91% 29.45 in 19 mi West 8.9 mph - - Rain Light Rain
2:00 PM 48.2 °F - 46.4 °F 93% 29.42 in 6.2 mi West 9.2 mph - N/A   Mostly Cloudy
2:30 PM 48.2 °F - 44.6 °F 87% 29.42 in 6.2 mi West 6.9 mph - N/A   Mostly Cloudy
3:00 PM 48 °F - 46 °F 89% 29.45 in 19 mi WSW 6.7 mph - -   Partly Cloudy
3:00 PM 48.2 °F - 46.4 °F 93% 29.42 in 6.2 mi WSW 6.9 mph - N/A   Mostly Cloudy
3:30 PM 44.6 °F 39.2 °F 41.0 °F 87% 29.44 in 6.2 mi West 10.4 mph - N/A Rain Light Rain Showers
4:00 PM 45 °F - 43 °F 88% 29.48 in 19 mi West 6.7 mph - - Rain Light Rain Showers
4:00 PM 44.6 °F 41.4 °F 42.8 °F 93% 29.44 in 6.2 mi West 5.8 mph - N/A   Mostly Cloudy
4:30 PM 46.4 °F 43.5 °F 42.8 °F 87% 29.47 in 6.2 mi West 5.8 mph - N/A   Mostly Cloudy
5:00 PM 46 °F - 43 °F 86% 29.50 in 25 mi West 4.5 mph - - Rain Light Rain Showers
5:00 PM 46.4 °F 44.3 °F 42.8 °F 87% 29.47 in 6.2 mi West 4.6 mph - N/A   Scattered Clouds
5:30 PM 44.6 °F 43.1 °F 42.8 °F 93% 29.47 in 6.2 mi WSW 3.5 mph - N/A   Mostly Cloudy
6:00 PM 45 °F - 43 °F 89% 29.53 in 25 mi West 4.5 mph - - Rain Light Rain Showers
6:00 PM 44.6 °F 42.2 °F 42.8 °F 93% 29.50 in 6.2 mi West 4.6 mph - N/A   Scattered Clouds
6:30 PM 42.8 °F 40.1 °F 41.0 °F 93% 29.50 in 6.2 mi SSW 4.6 mph - N/A   Scattered Clouds
7:00 PM 43 °F - 41 °F 91% 29.56 in 22 mi WSW 6.7 mph - -   Partly Cloudy
7:00 PM 42.8 °F 39.3 °F 41.0 °F 93% 29.53 in 6.2 mi WSW 5.8 mph - N/A   Scattered Clouds
7:30 PM 42.8 °F 39.3 °F 41.0 °F 93% 29.53 in 6.2 mi WSW 5.8 mph - N/A   Partly Cloudy
8:00 PM 41 °F - 40 °F 92% 29.59 in 19 mi WSW 4.5 mph - -   Partly Cloudy
8:00 PM 41.0 °F 38.0 °F 39.2 °F 93% 29.56 in 6.2 mi WSW 4.6 mph - N/A   Scattered Clouds
8:30 PM 41.0 °F 38.0 °F 39.2 °F 93% 29.56 in 6.2 mi SSW 4.6 mph - N/A   Mostly Cloudy
9:00 PM 41 °F - 39 °F 92% 29.61 in 19 mi SSW 4.5 mph - -   Scattered Clouds
9:00 PM 41.0 °F 38.0 °F 39.2 °F 93% 29.59 in 6.2 mi SSW 4.6 mph - N/A   Mostly Cloudy
9:30 PM 39.2 °F 35.9 °F 37.4 °F 93% 29.59 in 6.2 mi SW 4.6 mph - N/A   Scattered Clouds
10:00 PM 40 °F - 39 °F 95% 29.62 in 19 mi WSW 2.2 mph - -   Partly Cloudy
10:00 PM 39.2 °F - 39.2 °F 100% 29.59 in 6.2 mi WSW 2.3 mph - N/A   Scattered Clouds
10:30 PM 41.0 °F 39.0 °F 39.2 °F 93% 29.59 in 6.2 mi SSW 3.5 mph - N/A   Scattered Clouds
11:00 PM 40 °F - 39 °F 96% 29.64 in 19 mi WSW 11.2 mph - -   Partly Cloudy
11:00 PM 41.0 °F 37.1 °F 39.2 °F 93% 29.62 in 6.2 mi WSW 5.8 mph - N/A   Scattered Clouds
11:30 PM 41.0 °F 39.0 °F 39.2 °F 93% 29.62 in 6.2 mi WSW 3.5 mph - N/A   Partly Cloudy